Location: Cheyres
(46.8153°N, 6.7877°E)
Time: 20:13:44
(UTC+00:00)

AO-109 - Pass Details

Date: 10 July 2022
Orbit: 469 x 506 km, 60.7° (Epoch: 16 August)

Event Time Altitude Azimuth Distance (km) Brightness Sun altitude
Exits shadow 02:10:38 12° 264° (W) 1,562 ? -12.8°
Maximum altitude 02:13:42 31° 326° (NW) 881 ? -12.5°
Drops below altitude 10° 02:17:04 10° 29° (NNE) 1,681 ? -12.2°
Sets 02:19:26 0° 40° (NE) 2,574 ? -11.9°
